Date String (YYYY-MM-DD hh:mm:ss) UTC,Instrument flags,Ambient pressure (hPa),Sample flow (lpm),Bypass flow (lpm),Sample temperature (°C),Ambient temperature (°C),ASC tube jacket temperature (°C),LED temperature (°C),Box temperature (°C),Sample RH (%),Span deviation,Mass concentration (μg/m³),Mass concentration (μg/m³),Mass concentration (μg/m³)
DateTimeUTC,F1_M11,P_M11,Q1_M11,Q2_M11,T1_M11,T2_M11,T3_M11,T4_M11,T5_M11,U1_M11,ZSPAN_M11,X0_M11,X2_M11,X1_M11
2021-09-16 07:00:00,,0823.4,5.00,0.00,29.6,27.7,00.0,38.8,31.3,09.3,0002.1,0014.30,0005.81,0005.34
2021-09-16 07:01:00,,0823.4,4.99,0.00,29.6,27.9,00.0,38.8,31.3,09.2,0002.3,0014.44,0005.80,0005.33
2021-09-16 07:02:00,,0823.4,5.02,0.00,29.6,28.1,00.0,38.8,31.3,09.3,0002.1,0013.70,0005.77,0005.31
2021-09-16 07:03:00,,0823.4,4.99,0.00,29.6,28.2,00.0,38.8,31.4,09.2,0002.0,0013.52,0005.72,0005.28
2021-09-16 07:04:00,,0823.4,5.00,0.00,29.6,28.3,00.0,38.8,31.4,09.1,0002.2,0013.48,0005.71,0005.27
2021-09-16 07:05:00,,0823.4,4.99,0.00,29.6,28.4,00.0,38.8,31.4,09.1,0001.9,0013.45,0005.70,0005.28
2021-09-16 07:06:00,,0823.4,5.00,0.00,29.7,28.5,00.0,38.8,31.4,09.1,0001.5,0013.12,0005.65,0005.26
2021-09-16 07:07:00,,0823.4,4.99,0.00,29.7,28.6,00.0,38.8,31.4,09.2,0001.7,0011.26,0005.63,0005.24
2021-09-16 07:08:00,,0823.4,5.02,0.00,29.7,28.6,00.0,38.8,31.4,09.1,0001.8,0010.62,0005.61,0005.24
2021-09-16 07:09:00,,0823.4,4.99,0.00,29.7,28.7,00.0,38.8,31.5,09.0,0001.7,0010.49,0005.59,0005.24
2021-09-16 07:10:00,,0823.4,4.99,0.00,29.7,28.7,00.0,38.8,31.5,08.9,0002.3,0010.28,0005.56,0005.25
2021-09-16 07:11:00,,0823.4,4.99,0.00,29.7,28.8,00.0,38.8,31.5,09.0,0002.7,0010.67,0005.52,0005.24
2021-09-16 07:12:00,,0823.4,5.01,0.00,29.8,28.8,00.0,38.8,31.5,08.8,0002.8,0010.85,0005.52,0005.25
2021-09-16 07:13:00,,0823.5,5.00,0.00,29.8,28.8,00.0,38.8,31.6,08.8,0003.4,0011.34,0005.53,0005.27
2021-09-16 07:14:00,,0823.4,5.00,0.00,29.8,28.9,00.0,38.9,31.6,08.8,0003.5,0011.33,0005.55,0005.28
2021-09-16 07:15:00,,0823.4,5.01,0.00,29.8,28.9,00.0,38.9,31.6,08.8,0003.2,0011.27,0005.56,0005.29
2021-09-16 07:16:00,,0823.4,5.00,0.00,29.8,28.9,00.0,38.9,31.6,08.8,0003.1,0011.21,0005.56,0005.29
2021-09-16 07:17:00,,0823.4,5.00,0.00,29.8,29.0,00.0,38.9,31.6,08.8,0003.4,0010.96,0005.58,0005.31
2021-09-16 07:18:00,,0823.4,4.99,0.00,29.8,29.0,00.0,38.9,31.6,08.8,0003.3,0010.95,0005.61,0005.35
2021-09-16 07:19:00,,0823.4,5.00,0.00,29.9,29.0,00.0,38.9,31.7,08.8,0003.2,0010.45,0005.64,0005.38
2021-09-16 07:20:00,,0823.4,5.01,0.00,29.9,29.0,00.0,38.9,31.7,08.7,0003.3,0010.22,0005.70,0005.41
2021-09-16 07:21:00,,0823.4,5.01,0.00,29.9,29.1,00.0,38.9,31.7,08.8,0003.2,0010.14,0005.72,0005.42
2021-09-16 07:22:00,,0823.4,5.00,0.00,29.9,29.1,00.0,38.9,31.7,08.7,0003.2,0009.47,0005.75,0005.43
2021-09-16 07:23:00,,0823.4,5.00,0.00,29.9,29.1,00.0,39.0,31.7,08.8,0003.3,0009.20,0005.77,0005.44
2021-09-16 07:24:00,,0823.4,5.00,0.00,29.9,29.1,00.0,39.0,31.7,08.7,0002.5,0008.46,0005.79,0005.46
2021-09-16 07:25:00,,0823.4,5.00,0.00,30.0,29.1,00.0,39.0,31.8,08.7,0002.3,0008.72,0005.83,0005.48
2021-09-16 07:26:00,,0823.3,5.00,0.00,30.0,29.2,00.0,39.0,31.8,08.7,0002.5,0008.98,0005.89,0005.51
2021-09-16 07:27:00,,0823.3,5.00,0.00,30.0,29.2,00.0,39.0,31.7,08.7,0002.6,0009.06,0005.93,0005.53
2021-09-16 07:28:00,,0823.4,4.99,0.00,30.0,29.2,00.0,39.0,31.7,08.7,0002.9,0009.23,0005.96,0005.53
2021-09-16 07:29:00,,0823.3,5.00,0.00,30.0,29.2,00.0,39.0,31.8,08.8,0003.0,0009.44,0005.98,0005.53
2021-09-16 07:30:00,,0823.3,5.01,0.00,30.0,29.2,00.0,39.1,31.8,08.7,0003.0,0010.24,0006.00,0005.55
2021-09-16 07:31:00,,0823.3,4.99,0.00,30.0,29.2,00.0,39.1,31.8,08.8,0002.9,0010.15,0005.98,0005.56
2021-09-16 07:32:00,,0823.3,4.99,0.00,30.0,29.2,00.0,39.1,31.8,08.8,0002.9,0010.44,0006.01,0005.57
2021-09-16 07:33:00,,0823.4,5.00,0.00,30.1,29.3,00.0,39.1,31.8,08.7,0002.9,0010.66,0006.04,0005.59
2021-09-16 07:34:00,,0823.3,5.02,0.00,30.1,29.3,00.0,39.1,31.9,08.7,0002.7,0010.76,0006.04,0005.60
2021-09-16 07:35:00,,0823.4,4.99,0.00,30.1,29.3,00.0,39.1,31.9,08.7,0002.7,0010.78,0006.04,0005.62
2021-09-16 07:36:00,,0823.3,4.99,0.00,30.1,29.2,00.0,39.1,31.8,08.8,0002.8,0010.59,0006.05,0005.64
2021-09-16 07:37:00,,0823.3,5.01,0.00,30.0,27.7,00.0,39.1,31.4,08.8,0002.8,0010.94,0006.06,0005.67
2021-09-16 07:38:00,,0823.3,5.00,0.00,29.8,26.3,00.0,39.1,31.0,08.9,0002.7,0010.98,0006.05,0005.69
2021-09-16 07:39:00,,0823.4,5.01,0.00,29.7,26.4,00.0,39.0,31.0,08.9,0002.1,0011.00,0006.08,0005.71
2021-09-16 07:40:00,,0823.3,5.01,0.00,29.7,26.8,00.0,39.0,31.1,09.0,0001.9,0010.91,0006.12,0005.74
2021-09-16 07:41:00,,0823.3,5.00,0.00,29.6,27.2,00.0,38.9,31.2,09.0,0001.9,0010.33,0006.16,0005.75
2021-09-16 07:42:00,,0823.3,5.01,0.00,29.6,27.5,00.0,38.9,31.2,09.0,0001.7,0010.31,0006.20,0005.76
2021-09-16 07:43:00,,0823.3,4.99,0.00,29.6,27.8,00.0,38.9,31.3,09.1,0001.6,0010.14,0006.22,0005.78
2021-09-16 07:44:00,,0823.3,5.00,0.00,29.6,28.0,00.0,38.9,31.3,09.0,0001.6,0009.97,0006.23,0005.80
2021-09-16 07:45:00,,0823.3,5.00,0.00,29.7,28.2,00.0,38.9,31.4,08.9,0001.6,0009.91,0006.26,0005.82
2021-09-16 07:46:00,,0823.3,5.00,0.00,29.7,28.3,00.0,38.9,31.4,08.9,0001.8,0010.46,0006.28,0005.84
2021-09-16 07:47:00,,0823.3,5.01,0.00,29.7,28.4,00.0,38.9,31.4,09.0,0002.2,0010.59,0006.31,0005.86
2021-09-16 07:48:00,,0823.4,4.99,0.00,29.7,28.5,00.0,38.8,31.5,09.0,0002.2,0010.04,0006.31,0005.86
2021-09-16 07:49:00,,0823.4,5.01,0.00,29.7,28.6,00.0,38.9,31.5,08.9,0002.2,0009.92,0006.31,0005.86
2021-09-16 07:50:00,,0823.4,4.99,0.00,29.7,28.7,00.0,38.9,31.5,08.8,0002.4,0009.89,0006.34,0005.88
2021-09-16 07:51:00,,0823.4,5.01,0.00,29.7,28.7,00.0,38.8,31.5,08.8,0002.3,0009.87,0006.34,0005.90
2021-09-16 07:52:00,,0823.4,4.99,0.00,29.8,28.8,00.0,38.9,31.5,08.8,0002.3,0009.80,0006.33,0005.91
2021-09-16 07:53:00,,0823.4,4.99,0.00,29.8,28.8,00.0,38.9,31.6,08.8,0002.8,0009.90,0006.33,0005.93
2021-09-16 07:54:00,,0823.4,5.00,0.00,29.8,28.8,00.0,38.9,31.6,08.9,0002.9,0010.03,0006.33,0005.94
2021-09-16 07:55:00,,0823.4,4.99,0.00,29.8,28.9,00.0,38.9,31.6,08.9,0002.8,0010.20,0006.33,0005.96
2021-09-16 07:56:00,,0823.4,5.01,0.00,29.8,28.9,00.0,38.9,31.6,08.9,0002.7,0010.18,0006.33,0005.97
2021-09-16 07:57:00,,0823.4,5.00,0.00,29.8,28.9,00.0,38.9,31.6,09.0,0002.7,0009.49,0006.30,0005.97
2021-09-16 07:58:00,,0823.4,4.99,0.00,29.9,28.9,00.0,38.9,31.6,09.0,0002.7,0009.44,0006.29,0005.96
2021-09-16 07:59:00,,0823.3,4.99,0.00,29.9,29.0,00.0,38.9,31.6,08.9,0002.6,0009.46,0006.30,0005.97
